DIAMANT R/B, 2682

Orbit data source: Space-Track

DIAMANT R/B, 2682 is space debris in LEO originally from a launch on Wed, 15 Feb 1967 UTC launched from the Hamma Guira Space Track Range (HGSTR). Debris objects in space refer to the collection of defunct objects orbiting the Earth. Examples of debris include non-operational satellites, rocket bodies, and fragments generated from explosions, collisions, or faulty payload assembly.

Loading next visibility...
Identifier
2682, 1967-014B
Orbit
LEO
Country
Flag of FRFR
Related business
Manufacturer
Sud
Mission
Spacecraft
Bus & Motor
RUBIS, Unknown motor
Mass
65 kg wet, 65 kg dry
Launch date (UTC)
1967-02-15 (59 years ago)
Launch vehicle
Unknown
Launch site
Hamma Guira Space Track Range (HGSTR)
Object type
Payload
Rocket body
Debris
Shape & HBR
Cyl, 1.1 m
Radar Cross Section
1.347 m², Large (>1 m²)

Expand to show TLE details & history
Last TLE update: 11 hours ago

TLE from 11 hours ago
0 DIAMANT R/B
1 02682U 67014B   25258.43675625  .00001288  00000-0  55811-3 0  9998
2 02682  39.4608  37.0457 0746751 199.0374 158.0983 13.32020528827231
Epoch: 2025-09-15T10:28Z
TLE epoch observation values (Epoch: 2025-09-15T10:28:55.739Z)
Latitude
-0.00005°
Longitude
-114.82804°
Altitude
1,664.605 km
Speed
6.792 km/s
True Right ascension
02h 28m 10s
True Declination
0° 00' 00"
Sunlit
Object was in full shadow at epoch
Visualization orbit readout
Latitude
Unknown
Longitude
Unknown
Altitude
Unknown
Speed
Unknown
Apparent Right ascension
Unknown
Apparent Declination
Unknown
Sunlit
N/A
Visualization observer readout
Local Sidereal Time
14:09:52
Azimuth
Unknown
Elevation
Unknown
Doppler factor
Unknown
Orbital elements
Apogee altitude
1,703.014 km
Perigee altitude
579.957 km
Semi-major axis
7,519.622 km
Eccentricity
0.07468
Inclination
39.4608°
RAAN
37.0457°
Arg. of periapsis
199.0374°
True anomaly
161.03385°
Mean anomaly
158.0983°
Eccentric anomaly
159.59036°
Mean motion
3.3285 °/min
Orbital period
108.16 mins
BSTAR
0.00055811
Loading maneuver chart data...
Computing Atmospheric mass density...
Loading historical data...
Loading historical data...
Loading historical data...
Loading historical data...
Loading historical data...
Loading historical data...
Loading historical data...

Documentation

Showing up to 5 results
|